Change the Weather History Date:

Thursday, April 25, 2013

  Actual Average (KJKL) Record (KJKL)
Temperature  
Mean Temperature 50 °F 60 °F  
Max Temperature 61 °F 71 °F 89 °F (1990)
Min Temperature 39 °F 50 °F 35 °F (1983)
Degree Days  
Heating Degree Days 15 7  
Month to date heating degree days 240  
Since 1 July heating degree days 4093  
Cooling Degree Days 0 2  
Month to date cooling degree days 31  
Year to date cooling degree days 38  
Moisture  
Dew Point 34 °F    
Average Humidity 59    
Maximum Humidity 86    
Minimum Humidity 23    
Precipitation  
Precipitation 0.00 in 0.14 in 1.23 in (1993)
Month to date precipitation 3.15  
Year to date precipitation 14.63  
Snow  
Snow 0.00 in 0.00 in - ()
Month to date snowfall 1.0  
Since 1 July snowfall 23.5  
Snow Depth -    
Sea Level Pressure  
Sea Level Pressure 30.30 in    
Wind  
Wind Speed 2 mph (WNW)    
Max Wind Speed 10 mph    
Max Gust Speed 20 mph    
Visibility 10 miles    
Events      
T = Trace of Precipitation, MM = Missing Value Source: NWS Daily Summary

Daily Weather History Graph

Daily Weather History Graph

Search for Another Location

Airport or City:

Trip Planner

Search our weather history database for the weather conditions in past years. The results will help you decide how hot, cold, wet, or windy it might be!

Date:

Astronomy

Apr. 25, 2013 Rise Set
Actual Time 6:41 AM EDT 8:15 PM EDT
Civil Twilight 6:14 AM EDT 8:43 PM EDT
Nautical Twilight 5:40 AM EDT 9:17 PM EDT
Astronomical Twilight 5:05 AM EDT 9:52 PM EDT
Moon 8:26 PM EDT (4/25) 6:23 AM EDT (4/25)
Length of Visible Light 14h 29m
Length of Day
13h 33m
Full, 100% of the Moon is Illuminated
Apr 25
Full
Apr 25
Full
May 2
Last Quarter
May 9
New
May 18
First Quarter

Hourly Weather History & Observations

Time (EDT) Temp. Windchill Dew Point Humidity Pressure Visibility Wind Dir Wind Speed Gust Speed Precip Events Conditions
12:15 AM 43.7 °F - 39.6 °F 85% 30.25 in 10.0 mi Calm Calm - N/A   Overcast
12:35 AM 43.7 °F - 39.0 °F 84% 30.25 in 10.0 mi Calm Calm - N/A   Overcast
12:55 AM 43.7 °F - 38.8 °F 83% 30.26 in 10.0 mi Calm Calm - N/A   Overcast
1:15 AM 43.7 °F - 39.2 °F 84% 30.26 in 10.0 mi Calm Calm - N/A   Overcast
1:35 AM 43.0 °F - 38.8 °F 85% 30.26 in 10.0 mi Calm Calm - N/A   Overcast
1:55 AM 43.2 °F - 38.7 °F 84% 30.26 in 10.0 mi Calm Calm - N/A   Overcast
2:15 AM 43.0 °F - 39.2 °F 86% 30.26 in 10.0 mi Calm Calm - N/A   Overcast
2:35 AM 43.0 °F - 39.2 °F 86% 30.25 in 10.0 mi Calm Calm - N/A   Overcast
2:55 AM 43.0 °F - 38.5 °F 84% 30.26 in 10.0 mi Calm Calm - N/A   Overcast
3:15 AM 42.8 °F 41.1 °F 38.3 °F 84% 30.27 in 10.0 mi NNW 3.5 mph - N/A   Overcast
3:35 AM 42.4 °F 40.7 °F 37.6 °F 83% 30.26 in 10.0 mi North 3.5 mph - N/A   Overcast
3:55 AM 42.3 °F 38.6 °F 36.9 °F 81% 30.26 in 10.0 mi NNE 5.8 mph - N/A   Overcast
4:15 AM 42.3 °F 40.5 °F 37.4 °F 83% 30.25 in 10.0 mi NE 3.5 mph - N/A   Overcast
4:35 AM 42.3 °F - 35.1 °F 76% 30.25 in 10.0 mi Calm Calm - N/A   Overcast
4:55 AM 42.1 °F - 34.9 °F 76% 30.25 in 10.0 mi Calm Calm - N/A   Overcast
5:15 AM 41.9 °F - 32.2 °F 68% 30.25 in 10.0 mi Calm Calm - N/A   Overcast
5:35 AM 41.4 °F - 33.3 °F 73% 30.25 in 10.0 mi Calm Calm - N/A   Mostly Cloudy
5:55 AM 41.4 °F - 30.9 °F 66% 30.25 in 10.0 mi Calm Calm - N/A   Scattered Clouds
6:15 AM 39.6 °F - 34.7 °F 83% 30.25 in 10.0 mi Calm Calm - N/A   Clear
6:35 AM 39.2 °F - 32.9 °F 78% 30.26 in 10.0 mi Calm Calm - N/A   Clear
6:55 AM 39.2 °F - 32.0 °F 75% 30.27 in 10.0 mi Calm Calm - N/A   Clear
7:15 AM 39.4 °F - 32.2 °F 75% 30.28 in 10.0 mi Calm Calm - N/A   Clear
7:35 AM 40.1 °F - 33.8 °F 78% 30.28 in 10.0 mi Calm Calm - N/A   Clear
7:55 AM 40.8 °F - 35.2 °F 80% 30.30 in 10.0 mi Calm Calm - N/A   Clear
8:15 AM 43.0 °F - 34.3 °F 72% 30.31 in 10.0 mi Calm Calm - N/A   Mostly Cloudy
8:35 AM 43.0 °F 41.3 °F 37.2 °F 80% 30.31 in 10.0 mi WSW 3.5 mph - N/A   Overcast
8:55 AM 42.8 °F 41.1 °F 39.0 °F 86% 30.32 in 10.0 mi WNW 3.5 mph - N/A   Overcast
9:15 AM 43.9 °F 42.3 °F 39.0 °F 83% 30.32 in 10.0 mi NW 3.5 mph - N/A   Overcast
9:35 AM 43.9 °F 42.3 °F 38.5 °F 81% 30.33 in 10.0 mi WNW 3.5 mph - N/A   Overcast
9:55 AM 44.8 °F 43.3 °F 37.9 °F 77% 30.33 in 10.0 mi NNW 3.5 mph - N/A   Overcast
10:15 AM 47.3 °F - 34.3 °F 61% 30.33 in 10.0 mi South 5.8 mph - N/A   Mostly Cloudy
10:35 AM 47.5 °F - 34.2 °F 60% 30.33 in 10.0 mi South 3.5 mph - N/A   Mostly Cloudy
10:55 AM 48.0 °F - 34.5 °F 60% 30.34 in 10.0 mi West 3.5 mph - N/A   Mostly Cloudy
11:15 AM 47.5 °F - 34.0 °F 59% 30.35 in 10.0 mi Calm Calm - N/A   Mostly Cloudy
11:35 AM 49.3 °F - 34.5 °F 57% 30.35 in 10.0 mi West 5.8 mph - N/A   Overcast
11:55 AM 49.8 °F - 35.1 °F 57% 30.34 in 10.0 mi South 3.5 mph - N/A   Mostly Cloudy
12:15 PM 50.2 °F - 34.7 °F 55% 30.34 in 10.0 mi SW 9.2 mph - N/A   Mostly Cloudy
12:35 PM 51.1 °F - 34.3 °F 53% 30.33 in 10.0 mi Calm Calm - N/A   Scattered Clouds
12:55 PM 52.3 °F - 34.3 °F 50% 30.33 in 10.0 mi Calm Calm - N/A   Scattered Clouds
1:15 PM 53.4 °F - 34.9 °F 49% 30.33 in 10.0 mi South 9.2 mph - N/A   Scattered Clouds
1:35 PM 54.0 °F - 33.3 °F 46% 30.32 in 10.0 mi West 3.5 mph - N/A   Clear
1:55 PM 54.3 °F - 34.2 °F 47% 30.31 in 10.0 mi WSW 6.9 mph - N/A   Scattered Clouds
2:15 PM 56.1 °F - 34.9 °F 45% 30.31 in 10.0 mi WNW 9.2 mph - N/A   Clear
2:35 PM 57.2 °F - 32.5 °F 39% 30.31 in 10.0 mi West 10.4 mph - N/A   Clear
2:55 PM 57.0 °F - 33.3 °F 41% 30.30 in 10.0 mi SW 8.1 mph - N/A   Clear
3:55 PM 59.9 °F - 32.5 °F 36% 30.28 in 10.0 mi WSW 6.9 mph - N/A   Unknown
4:15 PM 60.4 °F - 31.6 °F 34% 30.28 in 10.0 mi SW 4.6 mph - N/A   Unknown
4:35 PM 60.6 °F - 30.0 °F 31% 30.27 in 10.0 mi West 3.5 mph - N/A   Unknown
4:55 PM 60.6 °F - 30.0 °F 31% 30.27 in 10.0 mi West 5.8 mph 19.6 mph N/A   Unknown
5:15 PM 60.4 °F - 29.5 °F 31% 30.27 in 10.0 mi Calm Calm - N/A   Unknown
5:35 PM 61.2 °F - 30.2 °F 31% 30.27 in 10.0 mi West 4.6 mph - N/A   Unknown
5:55 PM 61.0 °F - 27.3 °F 28% 30.28 in 10.0 mi WSW 9.2 mph 18.4 mph N/A   Clear
6:15 PM 60.6 °F - 27.5 °F 28% 30.28 in 10.0 mi NW 3.5 mph - N/A   Clear
6:35 PM 60.8 °F - 26.4 °F 27% 30.28 in 10.0 mi SW 5.8 mph - N/A   Clear
6:55 PM 60.8 °F - 22.8 °F 23% 30.28 in 10.0 mi WNW 6.9 mph - N/A   Clear
7:15 PM 60.1 °F - 21.4 °F 23% 30.29 in 10.0 mi NW 6.9 mph - N/A   Clear
7:35 PM 59.0 °F - 22.8 °F 25% 30.30 in 10.0 mi WNW 5.8 mph - N/A   Clear
7:55 PM 57.6 °F - 25.5 °F 29% 30.29 in 10.0 mi NW 9.2 mph - N/A   Clear
8:15 PM 56.3 °F - 27.1 °F 33% 30.31 in 10.0 mi NW 6.9 mph - N/A   Clear
8:35 PM 54.9 °F - 30.4 °F 39% 30.31 in 10.0 mi NNW 6.9 mph - N/A   Clear
8:55 PM 54.3 °F - 31.6 °F 42% 30.32 in 10.0 mi NNW 4.6 mph - N/A   Clear
9:15 PM 53.8 °F - 31.8 °F 43% 30.33 in 10.0 mi NNW 3.5 mph - N/A   Clear
9:35 PM 53.2 °F - 31.8 °F 44% 30.34 in 10.0 mi Calm Calm - N/A   Clear
9:55 PM 53.1 °F - 31.8 °F 44% 30.34 in 10.0 mi Calm Calm - N/A   Clear
10:15 PM 50.9 °F - 32.0 °F 48% 30.35 in 10.0 mi Calm Calm - N/A   Clear
10:35 PM 50.4 °F - 32.0 °F 49% 30.35 in 10.0 mi Calm Calm - N/A   Clear
10:55 PM 50.9 °F - 32.4 °F 49% 30.35 in 10.0 mi Calm Calm - N/A   Clear
11:15 PM 50.2 °F - 33.6 °F 53% 30.35 in 10.0 mi Calm Calm - N/A   Clear
11:35 PM 48.6 °F - 33.3 °F 56% 30.36 in 10.0 mi Calm Calm - N/A   Clear
11:55 PM 48.0 °F - 33.8 °F 58% 30.36 in 10.0 mi Calm Calm - N/A   Clear